Location: Kuppenheim
(48.8299°N, 8.2568°E)
Time: 10:27:24
(UTC+00:00)

AQUA - Pass Details

Date: 20 June 2021
Orbit: 701 x 704 km, 98.2° (Epoch: 28 July)

Event Time Altitude Azimuth Distance (km) Brightness Sun altitude
Rises 01:43:57 0° 12° (NNE) 3,106 8.7 -11.7°
Reaches altitude 10° 01:46:14 10° 11° (N) 2,183 7.6 -11.5°
Maximum altitude 01:51:00 73° 287° (WNW) 739 3.9 -11.0°
Enters shadow 01:55:04 14° 204° (SSW) 1,902 5.4 -10.7°
